Location: Poughquag
(41.6090°N, 73.6820°W)
Time: 07:19:33
(UTC-04:00)

Vanguard 3 - Visible Passes

Search period start: 29 May 2020 00:00
Search period end: 08 June 2020 00:00
Orbit: 510 x 3261 km, 33.3° (Epoch: 28 May)

Date Brightness Start Highest point End Pass type
(mag) Time Alt. Az. Time Alt. Az. Time Alt. Az.
29 May 11.0 00:47:19 10° SE 00:47:19 10° SE 00:48:17 10° SE visible
29 May 10.1 02:51:49 22° S 02:58:42 30° SSE 03:08:24 10° E visible
30 May 10.5 01:41:10 22° SSE 01:43:11 23° SSE 01:53:03 10° ESE visible
30 May 9.7 03:45:39 17° SW 03:57:20 42° SSE 04:06:57 10° E visible
31 May 10.9 00:30:25 14° SE 00:30:25 14° SE 00:35:19 10° ESE visible
31 May 10.1 02:34:53 27° S 02:41:51 35° SSE 02:52:43 10° E visible
31 May 9.4 04:40:43 10° WSW 04:55:55 52° S 05:04:49 10° E visible
01 Jun 10.4 01:24:01 26° SSE 01:26:08 27° SSE 01:37:31 10° E visible
01 Jun 9.7 03:28:29 20° SW 03:40:34 47° SSE 03:51:07 10° E visible
02 Jun 10.8 00:13:02 18° SE 00:13:02 18° SE 00:20:30 10° ESE visible
02 Jun 10.0 02:17:29 30° SSW 02:24:50 40° SSE 02:36:50 10° E visible
02 Jun 9.4 04:22:53 10° WSW 04:39:16 56° S 04:49:00 10° E visible
03 Jun 10.3 01:06:20 30° SSE 01:08:57 31° SSE 01:21:40 10° E visible
03 Jun 9.7 03:10:46 21° SW 03:23:40 52° SSE 03:35:11 10° E visible
03 Jun 10.7 23:55:01 22° SE 23:55:01 22° SE 00:05:00 10° E visible
04 Jun 10.0 01:59:27 31° SSW 02:07:42 45° SSE 02:20:48 10° E visible
04 Jun 9.5 04:05:06 10° WSW 04:22:29 59° S 04:33:06 10° E visible
04 Jun 11.1 22:43:28 11° ESE 22:43:28 11° ESE 22:44:41 10° ESE visible
05 Jun 10.3 00:47:51 33° SSE 00:51:38 36° SSE 01:05:35 10° E visible
05 Jun 9.7 02:52:14 19° SW 03:06:39 56° SSE 03:19:09 10° E visible
05 Jun 10.5 23:35:55 26° SE 23:35:55 26° SE 23:49:03 10° E visible
06 Jun 10.0 01:40:16 29° SSW 01:50:27 49° SSE 02:04:37 10° E visible
06 Jun 9.6 03:47:22 10° WSW 04:05:36 62° S 04:17:05 10° ESE visible
06 Jun 10.9 22:23:23 15° ESE 22:23:23 15° ESE 22:29:51 10° ESE visible
07 Jun 10.2 00:27:38 33° S 00:34:12 40° SSE 00:49:18 10° E visible
07 Jun 9.8 02:31:53 13° WSW 02:49:31 59° S 03:03:00 10° E visible
07 Jun 9.5 04:47:09 10° W 05:04:21 59° S 05:14:42 10° ESE visible
07 Jun 10.4 23:03:20 10° SSW 23:18:13 29° SE 23:32:48 10° E visible
